Regional Weather Roundup
Issued by NWS Northern Indiana

Home | Current Version | Previous Version | Graphics & Text | Print | Product List | Glossary On
Versions: 1 2 3 4 5 6 7 8 9 10 11 12 13 14 15 16 17 18 19 20 21 22 23 24 25 26 27 28 29 30 31 32 33 34 35 36 37 38 39 40 41 42 43 44 45 46 47 48 49 50
573
ASUS43 KIWX 231810
RWRIWX

KIWX WEATHER ROUNDUP
NATIONAL WEATHER SERVICE NORTHERN INDIANA
200 PM EDT FRI JUN 23 2017

NOTE: "FAIR" INDICATES FEW OR NO CLOUDS BELOW 12,000 FEET WITH NO
SIGNIFICANT WEATHER AND/OR OBSTRUCTIONS TO VISIBILITY.

* THESE STATIONS ARE NOT UNDER NWS QUALITY CONTROL. THEY ALSO MAY NOT
  REPORT WEATHER SUCH AS PRECIPITATION OR FOG.

INZ001>027-231900-
NORTHERN INDIANA

CITY           SKY/WX    TMP DP  RH WIND       PRES   REMARKS
GARY*          PTSUNNY   75  59  57 N6        29.73R
VALPARAISO     CLOUDY    73  59  61 N9G17     29.73R
6HR MIN TEMP:  67; 6HR MAX TEMP:  73; 6HR PCP:  0.03;

MICHIGAN CITY* CLOUDY    70  61  73 NW6       29.73R
LAPORTE*       CLOUDY    70  61  73 NW9       29.73R
6HR MIN TEMP:  65; 6HR MAX TEMP:  70; 6HR PCP:  0.05;

KNOX*          CLOUDY    70  54  56 N9        29.73R
SOUTH BEND     CLOUDY    69  61  75 NW12G17   29.72R
6HR MIN TEMP:  65; 6HR MAX TEMP:  69; 6HR PCP:  0.07;

ELKHART*       CLOUDY    72  61  68 N17       29.70R
GOSHEN         CLOUDY    72  62  71 NW8       29.70R
6HR MIN TEMP:  70; 6HR MAX TEMP:  73; 6HR PCP:  0.06;

MONTICELLO*    CLOUDY    69  66  88 N7        29.72R
6HR MIN TEMP:  69; 6HR MAX TEMP:  75; 6HR PCP:  0.05;

LOGANSPORT*    CLOUDY    70  64  83 NW14G20   29.72R
ROCHESTER*     CLOUDY    72  66  83 NW9       29.73R
WARSAW*        CLOUDY    70  63  78 NW6       29.72R
AUBURN*        CLOUDY    73  64  73 W8        29.69R
FORT WAYNE     LGT RAIN  72  67  84 SW12      29.71R
6HR MIN TEMP:  70; 6HR MAX TEMP:  75; 6HR PCP:  0.40;

HUNTINGTON*    DRIZZLE   71  70  96 SW5       29.70R
6HR MIN TEMP:  67; 6HR MAX TEMP:  72; 6HR PCP:  0.33;

PERU/GRISSOM   DRIZZLE   70  70  99 NW13      29.69S
6HR MIN TEMP:  68; 6HR MAX TEMP:  75; 6HR PCP:  0.12;


$$
INZ028>050-231900-
CENTRAL INDIANA

CITY           SKY/WX    TMP DP  RH WIND       PRES   REMARKS
LAFAYETTE      CLOUDY    70  69  97 W3        29.72S
6HR MIN TEMP:  67; 6HR MAX TEMP:  77; 6HR PCP:  0.48;

KOKOMO*        LGT RAIN  69  68  96 SW7       29.72R
6HR MIN TEMP:  69; 6HR MAX TEMP:  77; 6HR PCP:  0.42;

MUNCIE*        LGT RAIN  69  66  90 S3        29.72R FOG
6HR MIN TEMP:  68; 6HR MAX TEMP:  77; 6HR PCP:  1.92;

INDIANAPOLIS   TSTM      69  68  96 S13       29.73R
6HR MIN TEMP:  68; 6HR MAX TEMP:  77; 6HR PCP:  1.93;


$$
MIZ043>046-050>051-056>058-064>065-071>073-077>080-231900-
SOUTHWEST LOWER MICHIGAN

CITY           SKY/WX    TMP DP  RH WIND       PRES   REMARKS
BATTLE CREEK   CLOUDY    73  64  73 NW14      29.67R
6HR MIN TEMP:  71; 6HR MAX TEMP:  74; 6HR PCP:  0.01;

BENTON HARBOR  CLOUDY    69  61  75 VRB6      29.70R
6HR MIN TEMP:  66; 6HR MAX TEMP:  69; 6HR PCP:  0.17;

COLDWATER*     CLOUDY    72  67  85 W9        29.68R
6HR MIN TEMP:  70; 6HR MAX TEMP:  76;

HILLSDALE*     CLOUDY    72  63  73 W13G18    29.67R
HOLLAND        CLOUDY    71  62  73 NW9       29.68S
6HR MIN TEMP:  66; 6HR MAX TEMP:  71; 6HR PCP:  0.02;

GRAND RAPIDS   PTSUNNY   74  65  73 W15       29.65R
6HR MIN TEMP:  68; 6HR MAX TEMP:  75; 6HR PCP:  0.01;

KALAMAZOO      CLOUDY    73  61  65 NW10      29.67R
6HR MIN TEMP:  70; 6HR MAX TEMP:  74; 6HR PCP:  0.02;

STURGIS*       CLOUDY    71  64  80 NW6       29.68R
6HR MIN TEMP:  69; 6HR MAX TEMP:  73; 6HR PCP:  0.08;

THREE RIVERS*  PTSUNNY   72  62  70 NW10      29.70R
6HR MIN TEMP:  69; 6HR MAX TEMP:  73;


$$
OHZ001>008-015>018-024>025-231900-
NORTHWEST OHIO

CITY           SKY/WX    TMP DP  RH WIND       PRES   REMARKS
WAUSEON*       FAIR      77  68  73 SW13      29.65R
DEFIANCE       CLOUDY    73  68  84 SW13      29.68R
6HR MIN TEMP:  68; 6HR MAX TEMP:  75; 6HR PCP:  0.62;

FINDLAY        LGT RAIN  72  68  87 SW17      29.66S
6HR MIN TEMP:  71; 6HR MAX TEMP:  76; 6HR PCP:  0.50;

TOLEDO EXPRESS CLOUDY    75  69  81 SW9       29.63R
6HR MIN TEMP:  69; 6HR MAX TEMP:  76; 6HR PCP:  0.55;

TOLEDO METCALF CLOUDY    76  70  82 SW17      29.64R
6HR MIN TEMP:  73; 6HR MAX TEMP:  79; 6HR PCP:  0.38;

LIMA           RAIN      67  67 100 S9        29.68F FOG
6HR MIN TEMP:  67; 6HR MAX TEMP:  73; 6HR PCP:  1.14;


$$
AND FOR LAKE MICHIGAN COASTAL AND OPEN LAKE BUOY OBSERVATIONS

STATION/POSITION TEMP    WIND        PRES    VSBY  WAVE
                 AIR SEA DIR/SP/G                  HT/PER
                 (F)     (DEG/KT/KT) (MB)    (MI)  (FT/S)
CALUMET HARBOR    72      10/  7/  9 1006.1R
MICHIGAN CITY     67     290/ 10/ 11   N/A
BURNS HARBOR      67     320/  6/  7 1007.1R
SOUTH LAKE BUOY   63 61  300/  6/  8 1005.3R         1
4 MI NW BRIDGMAN  66 68  340/ 10/ 14 1005.9          2/ 3
MICHIGAN CITY     67 68  300/  8/ 10   N/A           1/ 3

$$
&&




USA.gov is the U.S. government's official web portal to all federal, state and local government web resources and services.